owner,sensor,date,latitude,longitude,sea_surface_height_above_sea_level,qcFlag 
COMPS,ioos:station:USF.COMPS:FHP:1,2014-01-01T00:00:00Z,28.1530,-82.8010,-0.117,1111122 
COMPS,ioos:station:USF.COMPS:FHP:1,2014-01-01T00:06:00Z,28.1530,-82.8010,-0.109,1111122 
COMPS,ioos:station:USF.COMPS:FHP:1,2014-01-01T00:12:00Z,28.1530,-82.8010,-0.094,1111122 
COMPS,ioos:station:USF.COMPS:FHP:1,2014-01-01T00:18:00Z,28.1530,-82.8010,-0.073,1111122 
COMPS,ioos:station:USF.COMPS:FHP:1,2014-01-01T00:24:00Z,28.1530,-82.8010,-0.056,1111122 
COMPS,ioos:station:USF.COMPS:FHP:1,2014-01-01T00:30:00Z,28.1530,-82.8010,-0.034,1111122 
COMPS,ioos:station:USF.COMPS:FHP:1,2014-01-01T00:36:00Z,28.1530,-82.8010,-0.019,1111122 
COMPS,ioos:station:USF.COMPS:FHP:1,2014-01-01T00:42:00Z,28.1530,-82.8010,0.008,1111122 
COMPS,ioos:station:USF.COMPS:FHP:1,2014-01-01T00:48:00Z,28.1530,-82.8010,0.021,1111122 
COMPS,ioos:station:USF.COMPS:FHP:1,2014-01-01T00:54:00Z,28.1530,-82.8010,0.031,1111122 
COMPS,ioos:station:USF.COMPS:FHP:1,2014-01-01T01:00:00Z,28.1530,-82.8010,0.058,1111122 
COMPS,ioos:station:USF.COMPS:FHP:1,2014-01-01T01:06:00Z,28.1530,-82.8010,0.082,1111122 
COMPS,ioos:station:USF.COMPS:FHP:1,2014-01-01T01:12:00Z,28.1530,-82.8010,0.101,1111122 
COMPS,ioos:station:USF.COMPS:FHP:1,2014-01-01T01:18:00Z,28.1530,-82.8010,0.127,1111122 
COMPS,ioos:station:USF.COMPS:FHP:1,2014-01-01T01:24:00Z,28.1530,-82.8010,0.142,1111122 
COMPS,ioos:station:USF.COMPS:FHP:1,2014-01-01T01:30:00Z,28.1530,-82.8010,0.127,1111122 
COMPS,ioos:station:USF.COMPS:FHP:1,2014-01-01T01:36:00Z,28.1530,-82.8010,0.159,1111122 
COMPS,ioos:station:USF.COMPS:FHP:1,2014-01-01T01:42:00Z,28.1530,-82.8010,0.181,1111122 
COMPS,ioos:station:USF.COMPS:FHP:1,2014-01-01T01:48:00Z,28.1530,-82.8010,0.195,1111122 
COMPS,ioos:station:USF.COMPS:FHP:1,2014-01-01T01:54:00Z,28.1530,-82.8010,0.214,1111122 
COMPS,ioos:station:USF.COMPS:FHP:1,2014-01-01T02:00:00Z,28.1530,-82.8010,0.226,1111122 
COMPS,ioos:station:USF.COMPS:FHP:1,2014-01-01T02:06:00Z,28.1530,-82.8010,0.229,1111122 
COMPS,ioos:station:USF.COMPS:FHP:1,2014-01-01T02:12:00Z,28.1530,-82.8010,0.238,1111122 
COMPS,ioos:station:USF.COMPS:FHP:1,2014-01-01T02:18:00Z,28.1530,-82.8010,0.259,1111122 
COMPS,ioos:station:USF.COMPS:FHP:1,2014-01-01T02:24:00Z,28.1530,-82.8010,0.26,1111122 
COMPS,ioos:station:USF.COMPS:FHP:1,2014-01-01T02:30:00Z,28.1530,-82.8010,0.267,1111122 
COMPS,ioos:station:USF.COMPS:FHP:1,2014-01-01T02:36:00Z,28.1530,-82.8010,0.27,1111122 
COMPS,ioos:station:USF.COMPS:FHP:1,2014-01-01T02:42:00Z,28.1530,-82.8010,0.285,1111122 
COMPS,ioos:station:USF.COMPS:FHP:1,2014-01-01T02:48:00Z,28.1530,-82.8010,0.291,1111122 
COMPS,ioos:station:USF.COMPS:FHP:1,2014-01-01T02:54:00Z,28.1530,-82.8010,0.327,1111122 
COMPS,ioos:station:USF.COMPS:FHP:1,2014-01-01T03:00:00Z,28.1530,-82.8010,0.338,1111122 
COMPS,ioos:station:USF.COMPS:FHP:1,2014-01-01T03:06:00Z,28.1530,-82.8010,0.356,1111122 
COMPS,ioos:station:USF.COMPS:FHP:1,2014-01-01T03:12:00Z,28.1530,-82.8010,0.343,1111122 
COMPS,ioos:station:USF.COMPS:FHP:1,2014-01-01T03:18:00Z,28.1530,-82.8010,0.347,1111122 
COMPS,ioos:station:USF.COMPS:FHP:1,2014-01-01T03:24:00Z,28.1530,-82.8010,0.359,1111122 
COMPS,ioos:station:USF.COMPS:FHP:1,2014-01-01T03:30:00Z,28.1530,-82.8010,0.37,1111122 
COMPS,ioos:station:USF.COMPS:FHP:1,2014-01-01T03:36:00Z,28.1530,-82.8010,0.381,1111122 
COMPS,ioos:station:USF.COMPS:FHP:1,2014-01-01T03:42:00Z,28.1530,-82.8010,0.384,1111122 
COMPS,ioos:station:USF.COMPS:FHP:1,2014-01-01T03:48:00Z,28.1530,-82.8010,0.396,1111122 
COMPS,ioos:station:USF.COMPS:FHP:1,2014-01-01T03:54:00Z,28.1530,-82.8010,0.38,1111122 
COMPS,ioos:station:USF.COMPS:FHP:1,2014-01-01T04:00:00Z,28.1530,-82.8010,0.388,1111122 
COMPS,ioos:station:USF.COMPS:FHP:1,2014-01-01T04:06:00Z,28.1530,-82.8010,0.4,1111122 
COMPS,ioos:station:USF.COMPS:FHP:1,2014-01-01T04:12:00Z,28.1530,-82.8010,0.369,1111122 
COMPS,ioos:station:USF.COMPS:FHP:1,2014-01-01T04:18:00Z,28.1530,-82.8010,0.371,1111122 
COMPS,ioos:station:USF.COMPS:FHP:1,2014-01-01T04:24:00Z,28.1530,-82.8010,0.352,1111122 
COMPS,ioos:station:USF.COMPS:FHP:1,2014-01-01T04:30:00Z,28.1530,-82.8010,0.353,1111122 
COMPS,ioos:station:USF.COMPS:FHP:1,2014-01-01T04:36:00Z,28.1530,-82.8010,0.334,1111122 
COMPS,ioos:station:USF.COMPS:FHP:1,2014-01-01T04:42:00Z,28.1530,-82.8010,0.303,1111122 
COMPS,ioos:station:USF.COMPS:FHP:1,2014-01-01T04:48:00Z,28.1530,-82.8010,0.298,1111122 
COMPS,ioos:station:USF.COMPS:FHP:1,2014-01-01T04:54:00Z,28.1530,-82.8010,0.288,1111122 
COMPS,ioos:station:USF.COMPS:FHP:1,2014-01-01T05:00:00Z,28.1530,-82.8010,0.278,1111122 
COMPS,ioos:station:USF.COMPS:FHP:1,2014-01-01T05:06:00Z,28.1530,-82.8010,0.257,1111122 
COMPS,ioos:station:USF.COMPS:FHP:1,2014-01-01T05:12:00Z,28.1530,-82.8010,0.245,1111122 
COMPS,ioos:station:USF.COMPS:FHP:1,2014-01-01T05:18:00Z,28.1530,-82.8010,0.223,1111122 
COMPS,ioos:station:USF.COMPS:FHP:1,2014-01-01T05:24:00Z,28.1530,-82.8010,0.22,1111122 
COMPS,ioos:station:USF.COMPS:FHP:1,2014-01-01T05:30:00Z,28.1530,-82.8010,0.18,1111122 
COMPS,ioos:station:USF.COMPS:FHP:1,2014-01-01T05:36:00Z,28.1530,-82.8010,0.175,1111122 
COMPS,ioos:station:USF.COMPS:FHP:1,2014-01-01T05:42:00Z,28.1530,-82.8010,0.14,1111122 
COMPS,ioos:station:USF.COMPS:FHP:1,2014-01-01T05:48:00Z,28.1530,-82.8010,0.131,1111122 
COMPS,ioos:station:USF.COMPS:FHP:1,2014-01-01T05:54:00Z,28.1530,-82.8010,0.119,1111122 
COMPS,ioos:station:USF.COMPS:FHP:1,2014-01-01T06:00:00Z,28.1530,-82.8010,0.102,1111122 
COMPS,ioos:station:USF.COMPS:FHP:1,2014-01-01T06:06:00Z,28.1530,-82.8010,0.075,1111122 
COMPS,ioos:station:USF.COMPS:FHP:1,2014-01-01T06:12:00Z,28.1530,-82.8010,0.063,1111122 
COMPS,ioos:station:USF.COMPS:FHP:1,2014-01-01T06:18:00Z,28.1530,-82.8010,0.04,1111122 
COMPS,ioos:station:USF.COMPS:FHP:1,2014-01-01T06:24:00Z,28.1530,-82.8010,0.018,1111122 
COMPS,ioos:station:USF.COMPS:FHP:1,2014-01-01T06:30:00Z,28.1530,-82.8010,0.009,1111122 
COMPS,ioos:station:USF.COMPS:FHP:1,2014-01-01T06:42:00Z,28.1530,-82.8010,-0.022,1111122 
COMPS,ioos:station:USF.COMPS:FHP:1,2014-01-01T06:48:00Z,28.1530,-82.8010,-0.05,1111122 
COMPS,ioos:station:USF.COMPS:FHP:1,2014-01-01T07:00:00Z,28.1530,-82.8010,-0.072,1111122 
COMPS,ioos:station:USF.COMPS:FHP:1,2014-01-01T07:06:00Z,28.1530,-82.8010,-0.103,1111122 
COMPS,ioos:station:USF.COMPS:FHP:1,2014-01-01T07:12:00Z,28.1530,-82.8010,-0.132,1111122 
COMPS,ioos:station:USF.COMPS:FHP:1,2014-01-01T07:18:00Z,28.1530,-82.8010,-0.156,1111122 
COMPS,ioos:station:USF.COMPS:FHP:1,2014-01-01T07:24:00Z,28.1530,-82.8010,-0.169,1111122 
COMPS,ioos:station:USF.COMPS:FHP:1,2014-01-01T07:30:00Z,28.1530,-82.8010,-0.189,1111122 
COMPS,ioos:station:USF.COMPS:FHP:1,2014-01-01T07:42:00Z,28.1530,-82.8010,-0.22,1111122 
COMPS,ioos:station:USF.COMPS:FHP:1,2014-01-01T07:48:00Z,28.1530,-82.8010,-0.249,1111122 
COMPS,ioos:station:USF.COMPS:FHP:1,2014-01-01T07:54:00Z,28.1530,-82.8010,-0.267,1111122 
COMPS,ioos:station:USF.COMPS:FHP:1,2014-01-01T08:00:00Z,28.1530,-82.8010,-0.289,1111122 
COMPS,ioos:station:USF.COMPS:FHP:1,2014-01-01T08:06:00Z,28.1530,-82.8010,-0.311,1111122 
COMPS,ioos:station:USF.COMPS:FHP:1,2014-01-01T08:12:00Z,28.1530,-82.8010,-0.332,1111122 
COMPS,ioos:station:USF.COMPS:FHP:1,2014-01-01T08:18:00Z,28.1530,-82.8010,-0.353,1111122 
COMPS,ioos:station:USF.COMPS:FHP:1,2014-01-01T08:24:00Z,28.1530,-82.8010,-0.375,1111122 
COMPS,ioos:station:USF.COMPS:FHP:1,2014-01-01T08:30:00Z,28.1530,-82.8010,-0.392,1111122 
COMPS,ioos:station:USF.COMPS:FHP:1,2014-01-01T08:36:00Z,28.1530,-82.8010,-0.41,1111122 
COMPS,ioos:station:USF.COMPS:FHP:1,2014-01-01T08:42:00Z,28.1530,-82.8010,-0.43,1111122 
COMPS,ioos:station:USF.COMPS:FHP:1,2014-01-01T08:48:00Z,28.1530,-82.8010,-0.448,1111122 
COMPS,ioos:station:USF.COMPS:FHP:1,2014-01-01T08:54:00Z,28.1530,-82.8010,-0.466,1111122 
COMPS,ioos:station:USF.COMPS:FHP:1,2014-01-01T09:00:00Z,28.1530,-82.8010,-0.482,1111122 
COMPS,ioos:station:USF.COMPS:FHP:1,2014-01-01T09:06:00Z,28.1530,-82.8010,-0.498,1111122 
COMPS,ioos:station:USF.COMPS:FHP:1,2014-01-01T09:12:00Z,28.1530,-82.8010,-0.513,1111122 
COMPS,ioos:station:USF.COMPS:FHP:1,2014-01-01T09:18:00Z,28.1530,-82.8010,-0.526,1111122 
COMPS,ioos:station:USF.COMPS:FHP:1,2014-01-01T09:24:00Z,28.1530,-82.8010,-0.539,1111122 
COMPS,ioos:station:USF.COMPS:FHP:1,2014-01-01T09:30:00Z,28.1530,-82.8010,-0.552,1111122 
COMPS,ioos:station:USF.COMPS:FHP:1,2014-01-01T09:42:00Z,28.1530,-82.8010,-0.574,1111122 
COMPS,ioos:station:USF.COMPS:FHP:1,2014-01-01T09:54:00Z,28.1530,-82.8010,-0.592,1111122 
COMPS,ioos:station:USF.COMPS:FHP:1,2014-01-01T10:00:00Z,28.1530,-82.8010,-0.601,1111122 
COMPS,ioos:station:USF.COMPS:FHP:1,2014-01-01T10:12:00Z,28.1530,-82.8010,-0.615,1111122 
COMPS,ioos:station:USF.COMPS:FHP:1,2014-01-01T10:18:00Z,28.1530,-82.8010,-0.622,1111122 
COMPS,ioos:station:USF.COMPS:FHP:1,2014-01-01T10:24:00Z,28.1530,-82.8010,-0.627,1111122 
COMPS,ioos:station:USF.COMPS:FHP:1,2014-01-01T10:42:00Z,28.1530,-82.8010,-0.643,1111122 
COMPS,ioos:station:USF.COMPS:FHP:1,2014-01-01T10:54:00Z,28.1530,-82.8010,-0.655,1111122 
COMPS,ioos:station:USF.COMPS:FHP:1,2014-01-01T11:06:00Z,28.1530,-82.8010,-0.665,1111122 
COMPS,ioos:station:USF.COMPS:FHP:1,2014-01-01T11:12:00Z,28.1530,-82.8010,-0.669,1111122 
COMPS,ioos:station:USF.COMPS:FHP:1,2014-01-01T11:24:00Z,28.1530,-82.8010,-0.676,1111122 
COMPS,ioos:station:USF.COMPS:FHP:1,2014-01-01T11:30:00Z,28.1530,-82.8010,-0.68,1111122 
COMPS,ioos:station:USF.COMPS:FHP:1,2014-01-01T11:36:00Z,28.1530,-82.8010,-0.685,1111122 
COMPS,ioos:station:USF.COMPS:FHP:1,2014-01-01T11:42:00Z,28.1530,-82.8010,-0.688,1111122 
COMPS,ioos:station:USF.COMPS:FHP:1,2014-01-01T11:48:00Z,28.1530,-82.8010,-0.693,1111122 
COMPS,ioos:station:USF.COMPS:FHP:1,2014-01-01T11:54:00Z,28.1530,-82.8010,-0.695,1111122 
COMPS,ioos:station:USF.COMPS:FHP:1,2014-01-01T12:00:00Z,28.1530,-82.8010,-0.7,1111122 
COMPS,ioos:station:USF.COMPS:FHP:1,2014-01-01T12:06:00Z,28.1530,-82.8010,-0.702,1111122 
COMPS,ioos:station:USF.COMPS:FHP:1,2014-01-01T12:12:00Z,28.1530,-82.8010,-0.704,1111122 
COMPS,ioos:station:USF.COMPS:FHP:1,2014-01-01T12:18:00Z,28.1530,-82.8010,-0.707,1111122 
COMPS,ioos:station:USF.COMPS:FHP:1,2014-01-01T12:36:00Z,28.1530,-82.8010,-0.716,1111122 
COMPS,ioos:station:USF.COMPS:FHP:1,2014-01-01T12:42:00Z,28.1530,-82.8010,-0.717,1111122 
COMPS,ioos:station:USF.COMPS:FHP:1,2014-01-01T12:54:00Z,28.1530,-82.8010,-0.724,1111122 
COMPS,ioos:station:USF.COMPS:FHP:1,2014-01-01T13:00:00Z,28.1530,-82.8010,-0.725,1111122 
COMPS,ioos:station:USF.COMPS:FHP:1,2014-01-01T13:12:00Z,28.1530,-82.8010,-0.729,1111122 
COMPS,ioos:station:USF.COMPS:FHP:1,2014-01-01T13:24:00Z,28.1530,-82.8010,-0.731,1111122 
COMPS,ioos:station:USF.COMPS:FHP:1,2014-01-01T13:30:00Z,28.1530,-82.8010,-0.731,1111122 
COMPS,ioos:station:USF.COMPS:FHP:1,2014-01-01T13:42:00Z,28.1530,-82.8010,-0.72,1111122 
COMPS,ioos:station:USF.COMPS:FHP:1,2014-01-01T13:48:00Z,28.1530,-82.8010,-0.706,1111122 
COMPS,ioos:station:USF.COMPS:FHP:1,2014-01-01T13:54:00Z,28.1530,-82.8010,-0.69,1111122 
COMPS,ioos:station:USF.COMPS:FHP:1,2014-01-01T14:00:00Z,28.1530,-82.8010,-0.665,1111122 
COMPS,ioos:station:USF.COMPS:FHP:1,2014-01-01T14:06:00Z,28.1530,-82.8010,-0.633,1111122 
COMPS,ioos:station:USF.COMPS:FHP:1,2014-01-01T14:12:00Z,28.1530,-82.8010,-0.596,1111122 
COMPS,ioos:station:USF.COMPS:FHP:1,2014-01-01T14:18:00Z,28.1530,-82.8010,-0.557,1111122 
COMPS,ioos:station:USF.COMPS:FHP:1,2014-01-01T14:24:00Z,28.1530,-82.8010,-0.523,1111122 
COMPS,ioos:station:USF.COMPS:FHP:1,2014-01-01T14:30:00Z,28.1530,-82.8010,-0.498,1111122 
COMPS,ioos:station:USF.COMPS:FHP:1,2014-01-01T14:36:00Z,28.1530,-82.8010,-0.473,1111122 
COMPS,ioos:station:USF.COMPS:FHP:1,2014-01-01T14:42:00Z,28.1530,-82.8010,-0.443,1111122 
COMPS,ioos:station:USF.COMPS:FHP:1,2014-01-01T14:48:00Z,28.1530,-82.8010,-0.413,1111122 
COMPS,ioos:station:USF.COMPS:FHP:1,2014-01-01T14:54:00Z,28.1530,-82.8010,-0.388,1111122 
COMPS,ioos:station:USF.COMPS:FHP:1,2014-01-01T15:00:00Z,28.1530,-82.8010,-0.359,1111122 
COMPS,ioos:station:USF.COMPS:FHP:1,2014-01-01T15:06:00Z,28.1530,-82.8010,-0.327,1111122 
COMPS,ioos:station:USF.COMPS:FHP:1,2014-01-01T15:12:00Z,28.1530,-82.8010,-0.301,1111122 
COMPS,ioos:station:USF.COMPS:FHP:1,2014-01-01T15:18:00Z,28.1530,-82.8010,-0.27,1111122 
COMPS,ioos:station:USF.COMPS:FHP:1,2014-01-01T15:24:00Z,28.1530,-82.8010,-0.236,1111122 
COMPS,ioos:station:USF.COMPS:FHP:1,2014-01-01T15:30:00Z,28.1530,-82.8010,-0.21,1111122 
COMPS,ioos:station:USF.COMPS:FHP:1,2014-01-01T15:36:00Z,28.1530,-82.8010,-0.18,1111122 
COMPS,ioos:station:USF.COMPS:FHP:1,2014-01-01T15:42:00Z,28.1530,-82.8010,-0.154,1111122 
COMPS,ioos:station:USF.COMPS:FHP:1,2014-01-01T15:48:00Z,28.1530,-82.8010,-0.131,1111122 
COMPS,ioos:station:USF.COMPS:FHP:1,2014-01-01T15:54:00Z,28.1530,-82.8010,-0.111,1111122 
COMPS,ioos:station:USF.COMPS:FHP:1,2014-01-01T16:00:00Z,28.1530,-82.8010,-0.091,1111122 
COMPS,ioos:station:USF.COMPS:FHP:1,2014-01-01T16:12:00Z,28.1530,-82.8010,-0.049,1111122 
COMPS,ioos:station:USF.COMPS:FHP:1,2014-01-01T16:18:00Z,28.1530,-82.8010,-0.019,1111122 
COMPS,ioos:station:USF.COMPS:FHP:1,2014-01-01T16:24:00Z,28.1530,-82.8010,-0.002,1111122 
COMPS,ioos:station:USF.COMPS:FHP:1,2014-01-01T16:30:00Z,28.1530,-82.8010,0.019,1111122 
COMPS,ioos:station:USF.COMPS:FHP:1,2014-01-01T16:36:00Z,28.1530,-82.8010,0.027,1111122 
COMPS,ioos:station:USF.COMPS:FHP:1,2014-01-01T16:42:00Z,28.1530,-82.8010,0.044,1111122 
COMPS,ioos:station:USF.COMPS:FHP:1,2014-01-01T16:48:00Z,28.1530,-82.8010,0.055,1111122 
COMPS,ioos:station:USF.COMPS:FHP:1,2014-01-01T17:00:00Z,28.1530,-82.8010,0.084,1111122 
COMPS,ioos:station:USF.COMPS:FHP:1,2014-01-01T17:06:00Z,28.1530,-82.8010,0.094,1111122 
COMPS,ioos:station:USF.COMPS:FHP:1,2014-01-01T17:12:00Z,28.1530,-82.8010,0.104,1111122 
COMPS,ioos:station:USF.COMPS:FHP:1,2014-01-01T17:18:00Z,28.1530,-82.8010,0.112,1111122 
COMPS,ioos:station:USF.COMPS:FHP:1,2014-01-01T17:24:00Z,28.1530,-82.8010,0.101,1111122 
COMPS,ioos:station:USF.COMPS:FHP:1,2014-01-01T17:30:00Z,28.1530,-82.8010,0.097,1111122 
COMPS,ioos:station:USF.COMPS:FHP:1,2014-01-01T17:36:00Z,28.1530,-82.8010,0.092,1111122 
COMPS,ioos:station:USF.COMPS:FHP:1,2014-01-01T17:42:00Z,28.1530,-82.8010,0.091,1111122 
COMPS,ioos:station:USF.COMPS:FHP:1,2014-01-01T17:48:00Z,28.1530,-82.8010,0.088,1111122 
COMPS,ioos:station:USF.COMPS:FHP:1,2014-01-01T17:54:00Z,28.1530,-82.8010,0.084,1111122 
COMPS,ioos:station:USF.COMPS:FHP:1,2014-01-01T18:00:00Z,28.1530,-82.8010,0.083,1111122 
COMPS,ioos:station:USF.COMPS:FHP:1,2014-01-01T18:06:00Z,28.1530,-82.8010,0.071,1111122 
COMPS,ioos:station:USF.COMPS:FHP:1,2014-01-01T18:12:00Z,28.1530,-82.8010,0.072,1111122 
COMPS,ioos:station:USF.COMPS:FHP:1,2014-01-01T18:18:00Z,28.1530,-82.8010,0.05,1111122 
COMPS,ioos:station:USF.COMPS:FHP:1,2014-01-01T18:24:00Z,28.1530,-82.8010,0.047,1111122 
COMPS,ioos:station:USF.COMPS:FHP:1,2014-01-01T18:30:00Z,28.1530,-82.8010,0.033,1111122 
COMPS,ioos:station:USF.COMPS:FHP:1,2014-01-01T18:36:00Z,28.1530,-82.8010,0.03,1111122 
COMPS,ioos:station:USF.COMPS:FHP:1,2014-01-01T18:42:00Z,28.1530,-82.8010,0.029,1111122 
COMPS,ioos:station:USF.COMPS:FHP:1,2014-01-01T18:48:00Z,28.1530,-82.8010,0.016,1111122 
COMPS,ioos:station:USF.COMPS:FHP:1,2014-01-01T19:00:00Z,28.1530,-82.8010,0.003,1111122 
COMPS,ioos:station:USF.COMPS:FHP:1,2014-01-01T19:06:00Z,28.1530,-82.8010,0.006,1111122 
COMPS,ioos:station:USF.COMPS:FHP:1,2014-01-01T19:12:00Z,28.1530,-82.8010,-0.008,1111122 
COMPS,ioos:station:USF.COMPS:FHP:1,2014-01-01T19:18:00Z,28.1530,-82.8010,-0.027,1111122 
COMPS,ioos:station:USF.COMPS:FHP:1,2014-01-01T19:24:00Z,28.1530,-82.8010,-0.034,1111122 
COMPS,ioos:station:USF.COMPS:FHP:1,2014-01-01T19:30:00Z,28.1530,-82.8010,-0.034,1111122 
COMPS,ioos:station:USF.COMPS:FHP:1,2014-01-01T19:42:00Z,28.1530,-82.8010,-0.053,1111122 
COMPS,ioos:station:USF.COMPS:FHP:1,2014-01-01T19:48:00Z,28.1530,-82.8010,-0.067,1111122 
COMPS,ioos:station:USF.COMPS:FHP:1,2014-01-01T19:54:00Z,28.1530,-82.8010,-0.075,1111122 
COMPS,ioos:station:USF.COMPS:FHP:1,2014-01-01T20:00:00Z,28.1530,-82.8010,-0.095,1111122 
COMPS,ioos:station:USF.COMPS:FHP:1,2014-01-01T20:06:00Z,28.1530,-82.8010,-0.101,1111122 
COMPS,ioos:station:USF.COMPS:FHP:1,2014-01-01T20:12:00Z,28.1530,-82.8010,-0.111,1111122 
COMPS,ioos:station:USF.COMPS:FHP:1,2014-01-01T20:18:00Z,28.1530,-82.8010,-0.123,1111122 
COMPS,ioos:station:USF.COMPS:FHP:1,2014-01-01T20:24:00Z,28.1530,-82.8010,-0.137,1111122 
COMPS,ioos:station:USF.COMPS:FHP:1,2014-01-01T20:30:00Z,28.1530,-82.8010,-0.148,1111122 
COMPS,ioos:station:USF.COMPS:FHP:1,2014-01-01T20:36:00Z,28.1530,-82.8010,-0.163,1111122 
COMPS,ioos:station:USF.COMPS:FHP:1,2014-01-01T20:48:00Z,28.1530,-82.8010,-0.181,1111122 
COMPS,ioos:station:USF.COMPS:FHP:1,2014-01-01T20:54:00Z,28.1530,-82.8010,-0.2,1111122 
COMPS,ioos:station:USF.COMPS:FHP:1,2014-01-01T21:00:00Z,28.1530,-82.8010,-0.204,1111122 
COMPS,ioos:station:USF.COMPS:FHP:1,2014-01-01T21:06:00Z,28.1530,-82.8010,-0.21,1111122 
COMPS,ioos:station:USF.COMPS:FHP:1,2014-01-01T21:12:00Z,28.1530,-82.8010,-0.226,1111122 
COMPS,ioos:station:USF.COMPS:FHP:1,2014-01-01T21:18:00Z,28.1530,-82.8010,-0.227,1111122 
COMPS,ioos:station:USF.COMPS:FHP:1,2014-01-01T21:24:00Z,28.1530,-82.8010,-0.234,1111122 
COMPS,ioos:station:USF.COMPS:FHP:1,2014-01-01T21:30:00Z,28.1530,-82.8010,-0.244,1111122 
COMPS,ioos:station:USF.COMPS:FHP:1,2014-01-01T21:36:00Z,28.1530,-82.8010,-0.258,1111122 
COMPS,ioos:station:USF.COMPS:FHP:1,2014-01-01T21:42:00Z,28.1530,-82.8010,-0.27,1111122 
COMPS,ioos:station:USF.COMPS:FHP:1,2014-01-01T21:48:00Z,28.1530,-82.8010,-0.276,1111122 
COMPS,ioos:station:USF.COMPS:FHP:1,2014-01-01T22:06:00Z,28.1530,-82.8010,-0.292,1111122 
COMPS,ioos:station:USF.COMPS:FHP:1,2014-01-01T22:12:00Z,28.1530,-82.8010,-0.297,1111122 
COMPS,ioos:station:USF.COMPS:FHP:1,2014-01-01T22:18:00Z,28.1530,-82.8010,-0.299,1111122 
COMPS,ioos:station:USF.COMPS:FHP:1,2014-01-01T22:24:00Z,28.1530,-82.8010,-0.302,1111122 
COMPS,ioos:station:USF.COMPS:FHP:1,2014-01-01T22:30:00Z,28.1530,-82.8010,-0.298,1111122 
COMPS,ioos:station:USF.COMPS:FHP:1,2014-01-01T22:36:00Z,28.1530,-82.8010,-0.306,1111122 
COMPS,ioos:station:USF.COMPS:FHP:1,2014-01-01T22:48:00Z,28.1530,-82.8010,-0.308,1111122 
COMPS,ioos:station:USF.COMPS:FHP:1,2014-01-01T22:54:00Z,28.1530,-82.8010,-0.299,1111122 
COMPS,ioos:station:USF.COMPS:FHP:1,2014-01-01T23:00:00Z,28.1530,-82.8010,-0.299,1111122 
COMPS,ioos:station:USF.COMPS:FHP:1,2014-01-01T23:06:00Z,28.1530,-82.8010,-0.291,1111122 
COMPS,ioos:station:USF.COMPS:FHP:1,2014-01-01T23:12:00Z,28.1530,-82.8010,-0.295,1111122 
COMPS,ioos:station:USF.COMPS:FHP:1,2014-01-01T23:18:00Z,28.1530,-82.8010,-0.289,1111122 
COMPS,ioos:station:USF.COMPS:FHP:1,2014-01-01T23:24:00Z,28.1530,-82.8010,-0.27,1111122 
COMPS,ioos:station:USF.COMPS:FHP:1,2014-01-01T23:30:00Z,28.1530,-82.8010,-0.271,1111122 
COMPS,ioos:station:USF.COMPS:FHP:1,2014-01-01T23:36:00Z,28.1530,-82.8010,-0.256,1111122 
COMPS,ioos:station:USF.COMPS:FHP:1,2014-01-01T23:42:00Z,28.1530,-82.8010,-0.241,1111122 
COMPS,ioos:station:USF.COMPS:FHP:1,2014-01-01T23:48:00Z,28.1530,-82.8010,-0.241,1111122 
COMPS,ioos:station:USF.COMPS:FHP:1,2014-01-02T00:00:00Z,28.1530,-82.8010,-0.205,1111122 
COMPS,ioos:station:USF.COMPS:FHP:1,2014-01-02T00:12:00Z,28.1530,-82.8010,-0.18,1111122 
COMPS,ioos:station:USF.COMPS:FHP:1,2014-01-02T00:18:00Z,28.1530,-82.8010,-0.162,1111122 
COMPS,ioos:station:USF.COMPS:FHP:1,2014-01-02T00:24:00Z,28.1530,-82.8010,-0.145,1111122 
COMPS,ioos:station:USF.COMPS:FHP:1,2014-01-02T00:36:00Z,28.1530,-82.8010,-0.11,1111122 
COMPS,ioos:station:USF.COMPS:FHP:1,2014-01-02T00:42:00Z,28.1530,-82.8010,-0.091,1111122 
COMPS,ioos:station:USF.COMPS:FHP:1,2014-01-02T00:48:00Z,28.1530,-82.8010,-0.074,1111122 
COMPS,ioos:station:USF.COMPS:FHP:1,2014-01-02T00:54:00Z,28.1530,-82.8010,-0.052,1111122 
COMPS,ioos:station:USF.COMPS:FHP:1,2014-01-02T01:00:00Z,28.1530,-82.8010,-0.028,1111122 
COMPS,ioos:station:USF.COMPS:FHP:1,2014-01-02T01:06:00Z,28.1530,-82.8010,-0.009,1111122 
COMPS,ioos:station:USF.COMPS:FHP:1,2014-01-02T01:12:00Z,28.1530,-82.8010,0.015,1111122 
COMPS,ioos:station:USF.COMPS:FHP:1,2014-01-02T01:18:00Z,28.1530,-82.8010,0.04,1111122 
COMPS,ioos:station:USF.COMPS:FHP:1,2014-01-02T01:24:00Z,28.1530,-82.8010,0.058,1111122 
COMPS,ioos:station:USF.COMPS:FHP:1,2014-01-02T01:30:00Z,28.1530,-82.8010,0.084,1111122 
COMPS,ioos:station:USF.COMPS:FHP:1,2014-01-02T01:36:00Z,28.1530,-82.8010,0.105,1111122 
COMPS,ioos:station:USF.COMPS:FHP:1,2014-01-02T01:42:00Z,28.1530,-82.8010,0.129,1111122 
COMPS,ioos:station:USF.COMPS:FHP:1,2014-01-02T01:48:00Z,28.1530,-82.8010,0.155,1111122 
COMPS,ioos:station:USF.COMPS:FHP:1,2014-01-02T01:54:00Z,28.1530,-82.8010,0.174,1111122 
COMPS,ioos:station:USF.COMPS:FHP:1,2014-01-02T02:00:00Z,28.1530,-82.8010,0.194,1111122 
COMPS,ioos:station:USF.COMPS:FHP:1,2014-01-02T02:06:00Z,28.1530,-82.8010,0.211,1111122 
COMPS,ioos:station:USF.COMPS:FHP:1,2014-01-02T02:12:00Z,28.1530,-82.8010,0.227,1111122 
COMPS,ioos:station:USF.COMPS:FHP:1,2014-01-02T02:18:00Z,28.1530,-82.8010,0.264,1111122 
COMPS,ioos:station:USF.COMPS:FHP:1,2014-01-02T02:24:00Z,28.1530,-82.8010,0.28,1111122 
COMPS,ioos:station:USF.COMPS:FHP:1,2014-01-02T02:30:00Z,28.1530,-82.8010,0.309,1111122 
COMPS,ioos:station:USF.COMPS:FHP:1,2014-01-02T02:36:00Z,28.1530,-82.8010,0.327,1111122 
COMPS,ioos:station:USF.COMPS:FHP:1,2014-01-02T02:42:00Z,28.1530,-82.8010,0.348,1111122 
COMPS,ioos:station:USF.COMPS:FHP:1,2014-01-02T02:48:00Z,28.1530,-82.8010,0.369,1111122 
COMPS,ioos:station:USF.COMPS:FHP:1,2014-01-02T02:54:00Z,28.1530,-82.8010,0.391,1111122 
COMPS,ioos:station:USF.COMPS:FHP:1,2014-01-02T03:00:00Z,28.1530,-82.8010,0.402,1111122 
COMPS,ioos:station:USF.COMPS:FHP:1,2014-01-02T03:06:00Z,28.1530,-82.8010,0.43,1111122 
COMPS,ioos:station:USF.COMPS:FHP:1,2014-01-02T03:12:00Z,28.1530,-82.8010,0.448,1111122 
COMPS,ioos:station:USF.COMPS:FHP:1,2014-01-02T03:18:00Z,28.1530,-82.8010,0.474,1111122 
COMPS,ioos:station:USF.COMPS:FHP:1,2014-01-02T03:24:00Z,28.1530,-82.8010,0.491,1111122 
COMPS,ioos:station:USF.COMPS:FHP:1,2014-01-02T03:30:00Z,28.1530,-82.8010,0.501,1111122 
COMPS,ioos:station:USF.COMPS:FHP:1,2014-01-02T03:36:00Z,28.1530,-82.8010,0.508,1111122 
COMPS,ioos:station:USF.COMPS:FHP:1,2014-01-02T03:42:00Z,28.1530,-82.8010,0.523,1111122 
COMPS,ioos:station:USF.COMPS:FHP:1,2014-01-02T03:48:00Z,28.1530,-82.8010,0.544,1111122 
COMPS,ioos:station:USF.COMPS:FHP:1,2014-01-02T03:54:00Z,28.1530,-82.8010,0.55,1111122 
COMPS,ioos:station:USF.COMPS:FHP:1,2014-01-02T04:00:00Z,28.1530,-82.8010,0.567,1111122 
COMPS,ioos:station:USF.COMPS:FHP:1,2014-01-02T04:06:00Z,28.1530,-82.8010,0.568,1111122 
COMPS,ioos:station:USF.COMPS:FHP:1,2014-01-02T04:12:00Z,28.1530,-82.8010,0.58,1111122 
COMPS,ioos:station:USF.COMPS:FHP:1,2014-01-02T04:18:00Z,28.1530,-82.8010,0.583,1111122 
COMPS,ioos:station:USF.COMPS:FHP:1,2014-01-02T04:24:00Z,28.1530,-82.8010,0.577,1111122 
COMPS,ioos:station:USF.COMPS:FHP:1,2014-01-02T04:30:00Z,28.1530,-82.8010,0.581,1111122 
COMPS,ioos:station:USF.COMPS:FHP:1,2014-01-02T04:36:00Z,28.1530,-82.8010,0.579,1111122 
COMPS,ioos:station:USF.COMPS:FHP:1,2014-01-02T04:42:00Z,28.1530,-82.8010,0.577,1111122 
COMPS,ioos:station:USF.COMPS:FHP:1,2014-01-02T04:48:00Z,28.1530,-82.8010,0.578,1111122 
COMPS,ioos:station:USF.COMPS:FHP:1,2014-01-02T04:54:00Z,28.1530,-82.8010,0.566,1111122 
COMPS,ioos:station:USF.COMPS:FHP:1,2014-01-02T05:00:00Z,28.1530,-82.8010,0.557,1111122 
COMPS,ioos:station:USF.COMPS:FHP:1,2014-01-02T05:06:00Z,28.1530,-82.8010,0.548,1111122 
COMPS,ioos:station:USF.COMPS:FHP:1,2014-01-02T05:12:00Z,28.1530,-82.8010,0.542,1111122 
COMPS,ioos:station:USF.COMPS:FHP:1,2014-01-02T05:18:00Z,28.1530,-82.8010,0.529,1111122 
COMPS,ioos:station:USF.COMPS:FHP:1,2014-01-02T05:24:00Z,28.1530,-82.8010,0.502,1111122 
COMPS,ioos:station:USF.COMPS:FHP:1,2014-01-02T05:30:00Z,28.1530,-82.8010,0.51,1111122 
COMPS,ioos:station:USF.COMPS:FHP:1,2014-01-02T05:36:00Z,28.1530,-82.8010,0.493,1111122 
COMPS,ioos:station:USF.COMPS:FHP:1,2014-01-02T05:42:00Z,28.1530,-82.8010,0.478,1111122 